Regional Weather Roundup
Issued by NWS

Home | Current Version | Previous Version | Text Only | Print | Product List | Glossary Off
Versions: 1 2 3 4 5 6 7 8 9 10 11 12 13 14 15 16 17 18 19 20 21 22 23 24 25 26 27 28 29 30 31 32 33 34 35 36 37 38 39 40 41 42 43 44 45 46 47 48 49 50

000
ASUS45 KPSR 312010
RWRAZ

ARIZONA REGIONAL HOURLY WEATHER ROUNDUP
NATIONAL WEATHER SERVICE PHOENIX AZ
100 PM MST SAT JAN 31 2015

NOTE: FAIR INDICATES FEW OR NO CLOUDS BELOW 12,000 FEET WITH NO
SIGNIFICANT WEATHER AND/OR OBSTRUCTIONS TO VISIBILITY.

AZZ001>003-036-312100-
NORTHWEST ARIZONA

CITY           SKY/WX    TMP DP  RH WIND       PRES   REMARKS
BULLHEAD CITY  PTSUNNY   63  45  51 N24G30    29.89F
KINGMAN        PTSUNNY   53  45  74 N9        29.92S
$$

AZZ004>008-015-016-018-312100-
NORTH CENTRAL ARIZONA

CITY           SKY/WX    TMP DP  RH WIND       PRES   REMARKS
GRAND CANYON   CLOUDY    42  38  85 VRB5      29.93F
PRESCOTT       PTSUNNY   51  37  58 VRB3      29.90F
FLAGSTAFF      CLOUDY    41  33  73 E5        29.93F
PAYSON         CLOUDY    48  41  76 VRB5      29.91F
$$

AZZ009>014-017-312100-
NORTHEAST ARIZONA

CITY           SKY/WX    TMP DP  RH WIND       PRES   REMARKS
WINSLOW        CLOUDY    46  40  79 NW7       29.92F
SAINT JOHNS    CLOUDY    46  40  79 NW8       29.88F
WINDOW ROCK    CLOUDY    39  34  82 CALM      29.90F
SHOW LOW       CLOUDY    43  36  75 N8        29.92F
$$

AZZ023-312100-
GREATER PHOENIX AREA

CITY           SKY/WX    TMP DP  RH WIND       PRES   REMARKS
PHOENIX        LGT RAIN  58  54  86 CALM      29.84F
BUCKEYE          N/A     61  61 100 SW5       29.85F
GLENDALE       PTSUNNY   63  54  72 E7        29.86F
LUKE AFB       CLOUDY    62  53  72 E8        29.83F
DEER VALLEY    CLOUDY    58  51  78 CALM      29.84F
SCOTTSDALE     CLOUDY    60  51  72 CALM      29.85F
MESA-FALCON    CLOUDY    57  57 100 VRB6      29.85S
CHANDLER       CLOUDY    59  55  88 CALM      29.86F
$$

AZZ027-028-312100-
SOUTHWEST MARICOPA COUNTY AND PINAL COUNTY

CITY           SKY/WX    TMP DP  RH WIND       PRES   REMARKS
CASA GRANDE    CLOUDY    54  52  94 CALM      29.86F
GILA BEND      RAIN      57  56  97 CALM      29.85F
$$

AZZ503-504-507>509-312100-
SOUTHEAST ARIZONA

CITY           SKY/WX    TMP DP  RH WIND       PRES   REMARKS
TUCSON         CLOUDY    56  50  80 NE5       29.86F
DAVIS-MONTHAN  DRIZZLE   54  50  87 NE7       29.84F
RYAN FIELD       N/A     55  52  88 N3        29.87F
NOGALES        CLOUDY    55  44  66 S12       29.86F
SIERRA VISTA   CLOUDY    51  44  77 CALM      29.86F
DOUGLAS        CLOUDY    52  45  77 SE10      29.87F
SAFFORD        CLOUDY    53  45  74 E7        29.86F
$$

AZZ020-021-025-026-031-312100-
SOUTHWEST ARIZONA

CITY           SKY/WX    TMP DP  RH WIND       PRES   REMARKS
YUMA           PTSUNNY   67  48  50 N12       29.85F
$$

CAZ031-033-041-043-047-048-061-312100-
SOUTHERN CALIFORNIA

CITY           SKY/WX    TMP DP  RH WIND       PRES   REMARKS
DOWNTOWN L.A.  SUNNY     68  53  58 CALM      29.90F
L.A. AIRPORT   MOSUNNY   65  53  65 S3        29.91F
SAN DIEGO      PTSUNNY   64  51  62 CALM      29.92F
BURBANK        SUNNY     65  50  58 VRB6      29.89F
ONTARIO        PTSUNNY   62  51  67 NW10      29.90F
RIVERSIDE      PTSUNNY   68  42  38 N13G24    29.90F
PALM SPRINGS   PTSUNNY   69  42  37 NE13      29.91F
EL CENTRO NAS  PTSUNNY   69  45  41 NW12G21   29.87F
IMPERIAL       PTSUNNY   69  48  47 N10       29.86F
BLYTHE         CLOUDY    64  50  60 N14       29.87F
NEEDLES        PTSUNNY   66  46  48 N22       29.89F
$$

NVZ020-UTZ003-312100-
SOUTHERN NEVADA-UTAH

CITY           SKY/WX    TMP DP  RH WIND       PRES   REMARKS
LAS VEGAS      PTSUNNY   61  40  45 N8        29.90F
SALT LAKE CITY MOSUNNY   44  31  60 NW9       30.04F
$$

NMZ009-TXZ055-312100-
NEW MEXICO-WEST TEXAS

CITY           SKY/WX    TMP DP  RH WIND       PRES   REMARKS
ALBUQUERQUE    CLOUDY    38  35  89 CALM      29.91F FOG
EL PASO        PTSUNNY   55  48  77 S7        29.87F
$$


........................KEY........................
SKY/WX - SKY CONDITION/WEATHER
TMP    - TEMPERATURE IN FAHRENHEIT
DP     - DEW POINT IN FAHRENHEIT
RH     - RELATIVE HUMIDITY IN PERCENT
WIND   - DIRECTION AND SPEED IN MILES PER HOUR (MPH)
VRB    - VARIABLE WIND DIRECTION
PRES   - MEAN SEA LEVEL PRESSURE IN INCHES OF MERCURY
         F - FALLING PRESSURE   R - RISING PRESSURE
         S - STEADY PRESSURE
VSB    - VISIBILITY IN MILES
HX     - HEAT INDEX IN FAHRENHEIT
WCI    - WIND CHILL INDEX IN FAHRENHEIT
TC     - TEMPERATURE IN CELSIUS WHICH IS ALSO KNOWN AS
         TEMPERATURE IN CENTIGRADE
AFB    - AIR FORCE BASE
         LUKE AFB IS LUKE AIR FORCE BASE
         DAVIS-MONTHAN IS DAVIS-MONTHAN AIR FORCE BASE
NAS    - NAVAL AIR STATION
         EL CENTRO NAS IS EL CENTRO NAVAL AIR STATION
N/A    - NOT AVAILABLE


USA.gov is the U.S. government's official web portal to all federal, state and local government web resources and services.